Lander, WY

8:09 AM MDT on April 21, 2018 (GMT -0600)
Hunt

Weather History for KLND - October, 2012

Change the Weather History Date:

Monday, October 22, 2012

  Actual Average Record
Temperature  
Mean Temperature 49 °F 43 °F  
Max Temperature 57 °F 56 °F 75 °F (1954)
Min Temperature 41 °F 31 °F 11 °F (1936)
Degree Days  
Heating Degree Days 16 22  
Month to date heating degree days 373 389  
Since 1 July heating degree days 460 648  
Cooling Degree Days 0 0  
Month to date cooling degree days 0 0  
Year to date cooling degree days 779 472  
Moisture  
Dew Point 39 °F    
Average Humidity 75    
Maximum Humidity 89    
Minimum Humidity 60    
Precipitation  
Precipitation 0.05 in 0.04 in 1.04 in (1947)
Month to date precipitation 0.24 0.96  
Year to date precipitation 5.27 10.89  
Snow  
Snow 0.00 in 0.40 in - ()
Month to date snowfall 2.9 6.5  
Since 1 July snowfall 2.9 9.2  
Since 1 September snowfall 2.9 9.2  
Snow Depth 0.00 in    
Sea Level Pressure  
Sea Level Pressure 29.65 in    
Wind  
Wind Speed 5 mph (NNE)    
Max Wind Speed 13 mph    
Max Gust Speed -    
Visibility 10 miles    
Events Rain , Thunderstorm    
T = Trace of Precipitation, MM = Missing Value Source: NWS Daily Summary

Daily Weather History Graph

Daily Weather History Graph

Search for Another Location

Airport or City:

Astronomy

Oct. 22, 2012 Rise Set
Actual Time 7:37 AM MDT 6:20 PM MDT
Civil Twilight 7:08 AM MDT 6:49 PM MDT
Nautical Twilight 6:35 AM MDT 7:22 PM MDT
Astronomical Twilight 6:02 AM MDT 7:55 PM MDT
Moon 2:39 PM MDT (10/22) 12:18 AM MDT (10/22)
Length of Visible Light 11h 40m
Length of Day
10h 43m
First Quarter, 57% of the Moon is Illuminated
Oct 22
First Quarter
Oct 29
Full
Nov 6
Last Quarter
Nov 13
New
Nov 20
First Quarter

Hourly Weather History & Observations

Time (MDT) Temp. Windchill Dew Point Humidity Pressure Visibility Wind Dir Wind Speed Gust Speed Precip Events Conditions
12:53 AM 48.0 °F - 35.1 °F 61% 29.69 in 10.0 mi East 6.9 mph - 0.00 in   Mostly Cloudy
1:53 AM 44.1 °F 37.7 °F 34.0 °F 68% 29.72 in 10.0 mi NNW 12.7 mph - N/A   Clear
2:53 AM 46.9 °F - 34.0 °F 61% 29.72 in 10.0 mi Calm Calm - N/A   Overcast
3:53 AM 44.1 °F 42.5 °F 35.1 °F 71% 29.72 in 10.0 mi SSE 3.5 mph - N/A   Overcast
4:53 AM 44.1 °F 41.5 °F 37.0 °F 76% 29.74 in 10.0 mi WNW 4.6 mph - 0.00 in   Overcast
5:53 AM 43.0 °F 40.3 °F 37.9 °F 82% 29.75 in 10.0 mi SE 4.6 mph - 0.01 in   Overcast
6:53 AM 42.1 °F 40.2 °F 37.9 °F 85% 29.76 in 10.0 mi WNW 3.5 mph - 0.00 in   Overcast
7:53 AM 42.1 °F - 39.0 °F 89% 29.76 in 10.0 mi Calm Calm - N/A   Mostly Cloudy
8:53 AM 43.0 °F - 39.0 °F 86% 29.75 in 10.0 mi Calm Calm - N/A   Overcast
9:53 AM 43.0 °F 41.3 °F 39.0 °F 86% 29.75 in 10.0 mi SSE 3.5 mph - N/A   Overcast
10:46 AM 44.6 °F - 39.2 °F 81% 29.77 in 10.0 mi Calm Calm - N/A   Overcast
10:53 AM 46.0 °F - 39.0 °F 76% 29.71 in 10.0 mi Calm Calm - N/A   Overcast
11:53 AM 48.0 °F - 39.9 °F 74% 29.68 in 10.0 mi Calm Calm - N/A   Partly Cloudy
12:53 PM 51.1 °F - 39.9 °F 66% 29.62 in 10.0 mi NNW 4.6 mph - N/A   Partly Cloudy
1:53 PM 53.1 °F - 41.0 °F 64% 29.58 in 10.0 mi WNW 4.6 mph - N/A   Mostly Cloudy
2:53 PM 55.9 °F - 42.1 °F 60% 29.52 in 10.0 mi Variable 5.8 mph - N/A   Clear
3:53 PM 55.0 °F - 42.1 °F 62% 29.53 in 10.0 mi NW 8.1 mph - N/A   Scattered Clouds
4:06 PM 51.8 °F - 42.8 °F 71% 29.63 in 10.0 mi West 6.9 mph - N/A Thunderstorm Thunderstorm
4:27 PM 51.8 °F - 44.6 °F 76% 29.60 in 10.0 mi ESE 4.6 mph - 0.01 in Rain Light Rain
4:53 PM 52.0 °F - 44.1 °F 74% 29.50 in 10.0 mi SSE 8.1 mph - 0.01 in Rain Light Rain
5:53 PM 54.0 °F - 39.0 °F 57% 29.49 in 10.0 mi South 5.8 mph - 0.01 in Rain Light Rain
6:53 PM 51.1 °F - 37.9 °F 61% 29.53 in 10.0 mi NNE 8.1 mph - 0.00 in   Partly Cloudy
7:53 PM 50.0 °F - 39.9 °F 68% 29.57 in 10.0 mi North 11.5 mph - 0.00 in   Mostly Cloudy
8:53 PM 45.0 °F 40.6 °F 39.0 °F 80% 29.62 in 10.0 mi NNW 8.1 mph - 0.00 in   Mostly Cloudy
9:53 PM 42.1 °F 37.7 °F 39.0 °F 89% 29.59 in 10.0 mi East 6.9 mph - N/A   Scattered Clouds
10:53 PM 44.1 °F 41.5 °F 39.0 °F 82% 29.60 in 10.0 mi East 4.6 mph - 0.01 in Rain Light Rain
11:53 PM 42.1 °F 37.7 °F 39.0 °F 89% 29.56 in 10.0 mi North 6.9 mph - 0.00 in Rain Light Rain